CAPE
0 0 0 0 0 0 0 0 0 0 0 0 0 0 281 357 539 435 1488 2007 2561 1911 1675 1628 1425 1029 628 201 0 0 51 346 620 700 662 551 228 264 344 933 823 466 673 641 770 680 343 145 25
0 0 0 0 0 0 0 0 0 0 0 0 0 0 39 114 338 795 1770 2581 2484 2378 2660 1997 1444 1177 611 131 0 0 0 75 388 631 696 656 325 314 548 843 665 398 531 657 710 598 228 36 0
0 0 0 0 0 0 0 0 0 0 0 0 0 0 0 0 0 314 1449 2737 2393 2401 2355 2123 1401 1177 772 233 14 0 0 4 70 249 436 426 311 366 593 745 409 233 587 757 695 456 187 29 0
0 0 0 0 0 0 0 0 0 0 0 0 0 0 0 0 0 1763 2509 2515 1960 1560 1542 1768 1522 1231 972 504 178 39 0 0 23 107 258 369 444 463 520 475 218 252 589 698 538 309 65 0 0
0 0 0 0 0 0 0 0 0 0 0 0 0 0 0 0 0 2079 2497 2272 2171 1835 1571 1912 1460 1178 1176 683 292 140 19 0 2 25 96 205 281 308 273 200 219 427 623 546 377 139 16 3 0
0 0 0 0 0 0 0 0 0 0 0 0 0 0 0 0 0 1855 2362 2215 2139 2043 1839 1944 1641 1546 1408 1020 589 290 148 18 7 2 11 48 94 124 121 186 289 447 586 602 475 304 75 1 0
0 0 0 0 0 0 0 0 0 0 0 0 0 0 0 0 0 1574 2560 2518 2264 2179 2177 2079 1885 1804 1411 1199 916 571 329 207 116 58 21 6 5 16 67 114 216 425 566 499 436 208 8 0 0
0 0 0 0 0 0 0 0 0 0 0 0 0 0 0 0 0 0 1479 2420 2407 2392 2235 2276 2098 1821 1770 1467 1225 981 628 356 185 148 72 44 16 40 69 69 120 332 359 308 235 25 0 0 0
0 0 0 0 0 0 0 0 0 0 0 0 0 0 0 0 0 0 0 0 1355 2135 2350 2280 1978 1862 1845 1601 1521 1294 1107 870 502 343 216 129 35 82 114 178 340 299 311 270 181 51 0 0 0
0 0 0 0 0 0 0 0 0 0 0 0 0 0 0 0 0 0 0 0 0 218 2129 2312 2134 1899 1758 1489 1571 1535 1397 1195 994 723 602 292 197 197 143 228 357 351 395 330 220 125 44 15 0
0 0 0 0 0 0 0 0 0 0 0 0 0 0 0 0 0 0 0 0 0 0 578 1927 2395 2171 1921 1528 1773 1475 1421 1288 1224 1024 779 548 397 249 160 194 235 300 279 111 34 17 60 0 0
0 0 0 0 0 0 0 0 0 0 0 0 0 0 0 0 0 0 0 0 0 0 0 349 1867 2113 2036 1742 1888 1567 1263 1145 1149 985 895 542 337 184 113 236 110 184 74 35 29 0 2 13 0
0 0 0 0 0 0 0 0 0 0 0 0 0 0 0 0 0 0 0 0 0 0 0 0 0 221 1754 1822 2092 1878 1555 1011 1013 877 902 642 298 134 54 95 91 48 20 9 0 0 0 0 0
0 0 0 0 0 0 0 0 0 0 0 0 0 0 0 0 0 0 0 0 0 0 0 0 0 0 1015 2067 2216 1904 1789 1397 1111 889 916 868 446 95 32 104 168 98 65 24 2 0 0 0 0
0 0 0 0 0 0 0 0 0 0 0 0 0 0 0 0 0 0 0 0 0 0 0 0 0 0 748 1155 2202 2130 1637 1516 1272 1029 1264 1067 724 275 111 172 161 171 128 116 55 1 0 3 19
0 0 0 0 0 0 0 0 0 0 0 0 0 0 0 0 0 0 0 0 0 0 0 0 0 0 303 1025 1482 2087 1879 1783 1525 1446 1221 1168 1099 758 302 152 142 143 183 68 27 27 76 127 124
0 0 0 0 0 0 0 0 0 0 0 0 0 0 0 0 0 0 0 0 0 0 0 0 0 0 0 210 1147 1952 1935 1673 1715 1571 1370 1317 1244 1126 734 436 161 114 68 87 39 105 149 174 444
0 0 0 0 0 0 0 0 0 0 0 0 0 0 0 0 0 0 0 0 0 0 0 0 0 0 0 101 699 1449 1621 1418 1476 1374 1313 1376 1236 1225 1050 894 546 227 111 38 67 62 248 251 498
0 0 0 0 0 0 0 0 0 0 0 0 0 0 0 0 0 0 0 0 0 0 0 0 0 0 0 313 518 1093 714 901 1060 1065 1156 1194 1113 915 867 958 790 495 204 111 183 133 124 376 402
0 0 0 0 0 0 0 0 0 0 0 0 0 0 0 0 0 0 0 0 0 0 0 0 0 0 0 113 877 1519 1319 1388 1285 1503 1356 1367 1375 1177 983 914 912 880 689 319 129 213 63 286 527
0 0 0 0 0 0 0 0 0 0 0 0 0 0 0 0 0 0 0 0 0 0 0 0 0 0 0 11 1333 1657 1633 1525 1287 1217 961 747 719 610 780 806 851 918 925 671 439 278 215 225 548
0 0 0 0 0 0 0 0 0 0 0 0 0 0 0 0 0 0 0 0 0 0 0 0 0 0 0 12 502 1036 1378 1291 1196 854 533 364 577 713 819 844 850 896 944 921 686 615 516 400 440
0 0 0 0 0 0 0 0 0 0 0 0 0 0 0 0 0 0 0 0 0 0 0 0 0 0 0 60 392 1006 978 442 694 688 507 575 721 625 590 723 595 664 735 595 735 774 550 403 104
0 0 0 0 0 0 0 0 0 0 0 0 0 0 0 0 0 0 0 0 0 0 0 0 1 53 219 353 753 711 909 213 660 689 572 521 510 743 678 707 773 767 653 664 649 602 630 609 488
0 0 0 0 0 0 0 0 0 0 0 0 0 0 0 0 0 0 0 0 0 0 0 0 0 125 209 573 750 1047 1047 653 638 695 884 726 735 618 927 937 905 922 1083 789 612 475 474 505 427
0 0 0 0 0 0 0 0 0 0 0 14 20 24 9 0 0 0 17 0 0 0 0 0 0 19 312 359 658 768 859 746 715 760 814 1136 1266 1081 1119 1055 1065 1058 1084 923 672 353 179 73 8
0 0 0 0 0 0 0 0 0 0 14 63 62 20 0 0 0 5 41 5 0 0 0 0 0 0 116 570 664 696 644 738 937 1402 1696 1744 1719 1454 1322 1026 793 807 665 393 218 70 12 1 0
0 0 0 1 1 0 0 0 0 0 4 0 51 0 0 0 0 27 54 17 2 0 0 0 0 0 33 158 605 745 783 908 1114 1471 1455 1442 1258 882 920 617 531 450 394 122 17 11 1 0 0
0 0 0 0 14 9 2 0 0 0 0 0 9 7 1 0 0 2 107 136 107 0 0 0 0 0 0 0 151 648 756 731 826 708 749 747 652 556 463 294 245 255 122 29 1 3 4 1 2
0 0 0 29 4 22 16 0 0 0 0 1 0 0 0 0 0 0 0 0 0 9 0 0 0 0 0 0 0 76 224 281 367 318 566 464 469 433 241 125 47 31 5 3 3 6 4 3 1
CIN
0 0 0 0 0 0 0 0 0 0 0 0 0 -34 -130 -108 -73 -55 -149 -168 -149 -188 -241 -217 -229 -258 -294 -364 0 0 -418 -316 -237 -212 -201 -208 -296 -258 -200 -87 -100 -154 -107 -100 -68 -76 -137 -206 -350
0 0 0 0 0 0 0 0 0 0 0 0 0 0 -165 -167 -169 -129 -77 -123 -172 -192 -137 -200 -261 -261 -317 -402 0 0 0 -418 -284 -211 -183 -175 -250 -239 -133 -72 -101 -151 -121 -95 -71 -75 -144 -290 0
0 0 0 0 0 0 0 0 0 0 0 0 0 0 0 0 0 -264 -160 -119 -168 -168 -149 -144 -254 -262 -300 -392 -315 0 0 -192 -412 -320 -235 -222 -249 -207 -116 -71 -134 -175 -100 -68 -62 -90 -137 -276 0
0 0 0 0 0 0 0 0 0 0 0 0 0 0 0 0 0 -119 -106 -117 -158 -229 -223 -193 -196 -221 -245 -320 -386 -414 0 0 -445 -365 -299 -238 -189 -162 -126 -111 -185 -157 -73 -54 -69 -99 -191 -5 0
0 0 0 0 0 0 0 0 0 0 0 0 0 0 0 0 0 -99 -100 -108 -97 -152 -184 -137 -208 -232 -214 -264 -331 -373 -423 0 -195 -436 -332 -279 -228 -198 -181 -194 -168 -90 -48 -61 -82 -125 -284 -372 0
0 0 0 0 0 0 0 0 0 0 0 0 0 0 0 0 0 -86 -85 -90 -103 -109 -140 -123 -160 -164 -164 -202 -260 -309 -353 -197 -412 -227 -429 -366 -311 -257 -223 -175 -127 -66 -38 -34 -48 -63 -176 -107 0
0 0 0 0 0 0 0 0 0 0 0 0 0 0 0 0 0 -86 -51 -56 -80 -92 -88 -92 -92 -113 -159 -169 -190 -233 -279 -302 -328 -346 -380 -401 -397 -338 -244 -197 -142 -58 -23 -32 -38 -77 -245 0 0
0 0 0 0 0 0 0 0 0 0 0 0 0 0 0 0 0 0 -55 -54 -57 -67 -73 -75 -79 -81 -78 -93 -134 -147 -185 -227 -266 -269 -308 -317 -335 -290 -243 -203 -171 -76 -59 -58 -69 -196 0 0 0
0 0 0 0 0 0 0 0 0 0 0 0 0 0 0 0 0 0 0 0 -79 -74 -70 -81 -92 -102 -81 -79 -84 -104 -102 -113 -163 -187 -209 -238 -262 -234 -196 -135 -75 -75 -72 -74 -80 -145 0 0 0
0 0 0 0 0 0 0 0 0 0 0 0 0 0 0 0 0 0 0 0 0 -69 -40 -58 -77 -87 -93 -114 -83 -65 -56 -56 -70 -95 -104 -148 -172 -157 -153 -105 -82 -69 -59 -67 -73 -91 -157 -228 0
0 0 0 0 0 0 0 0 0 0 0 0 0 0 0 0 0 0 0 0 0 0 -72 -32 -57 -79 -76 -98 -60 -61 -58 -49 -48 -65 -79 -96 -105 -135 -144 -106 -97 -73 -76 -111 -148 -137 -114 0 0
0 0 0 0 0 0 0 0 0 0 0 0 0 0 0 0 0 0 0 0 0 0 0 -53 -44 -67 -90 -91 -60 -60 -76 -83 -62 -75 -64 -78 -113 -130 -161 -111 -125 -94 -121 -153 -153 0 -19 -157 0
0 0 0 0 0 0 0 0 0 0 0 0 0 0 0 0 0 0 0 0 0 0 0 0 0 -127 -82 -108 -61 -56 -59 -101 -98 -92 -69 -54 -97 -155 -164 -137 -117 -129 -132 -136 0 0 0 0 0
0 0 0 0 0 0 0 0 0 0 0 0 0 0 0 0 0 0 0 0 0 0 0 0 0 0 -95 -77 -61 -73 -61 -70 -91 -110 -80 -59 -84 -201 -217 -111 -85 -92 -94 -127 -43 0 0 0 0
0 0 0 0 0 0 0 0 0 0 0 0 0 0 0 0 0 0 0 0 0 0 0 0 0 0 -110 -83 -66 -43 -77 -65 -70 -88 -41 -33 -83 -133 -161 -122 -93 -78 -65 -65 -122 -23 0 -70 -161
0 0 0 0 0 0 0 0 0 0 0 0 0 0 0 0 0 0 0 0 0 0 0 0 0 0 -128 -102 -91 -65 -52 -44 -64 -48 -33 -23 -19 -44 -91 -117 -123 -103 -73 -72 -120 -132 -75 -53 -47
0 0 0 0 0 0 0 0 0 0 0 0 0 0 0 0 0 0 0 0 0 0 0 0 0 0 0 -136 -119 -67 -71 -71 -59 -53 -56 -45 -23 -14 -28 -58 -110 -104 -115 -66 -87 -44 -29 -19 -14
0 0 0 0 0 0 0 0 0 0 0 0 0 0 0 0 0 0 0 0 0 0 0 0 0 0 0 -182 -165 -91 -87 -86 -76 -69 -68 -56 -43 -16 -8 -7 -36 -66 -99 -152 -67 -80 -8 -19 -10
0 0 0 0 0 0 0 0 0 0 0 0 0 0 0 0 0 0 0 0 0 0 0 0 0 0 0 -188 -175 -92 -65 -59 -73 -72 -79 -66 -55 -38 -25 -10 -9 -29 -62 -112 -67 -62 -46 -7 -12
0 0 0 0 0 0 0 0 0 0 0 0 0 0 0 0 0 0 0 0 0 0 0 0 0 0 0 -185 -120 -75 -61 -79 -60 -64 -67 -49 -35 -37 -24 -20 -18 -15 -14 -72 -97 -57 -73 -21 -1
0 0 0 0 0 0 0 0 0 0 0 0 0 0 0 0 0 0 0 0 0 0 0 0 0 0 0 -15 -128 -106 -83 -86 -68 -59 -55 -49 -46 -49 -51 -43 -21 -8 -5 -17 -41 -65 -51 -9 -2
0 0 0 0 0 0 0 0 0 0 0 0 0 0 0 0 0 0 0 0 0 0 0 0 0 0 0 -22 -213 -123 -76 -38 -41 -48 -65 -72 -72 -74 -68 -48 -22 -3 0 0 -8 -19 -15 -7 -7
0 0 0 0 0 0 0 0 0 0 0 0 0 0 0 0 0 0 0 0 0 0 0 0 0 -15 -7 -411 -243 -147 -75 -59 -60 -90 -82 -70 -80 -73 -67 -55 -58 -34 -9 -13 -1 -8 -2 -6 -63
0 0 0 0 0 0 0 0 0 0 0 0 0 0 0 0 0 0 0 0 0 0 0 0 -38 -410 -436 -377 -230 -113 -77 -95 -39 -77 -59 -46 -50 -74 -74 -64 -50 -24 -27 -19 -1 0 0 -2 0
0 0 0 0 0 0 0 0 0 0 0 0 0 0 0 0 0 0 0 0 0 0 0 0 0 -340 -352 -299 -242 -161 -138 -86 -75 -70 -55 -46 -54 -53 -50 -52 -46 -22 0 -7 -13 -7 -2 0 -1
0 0 0 0 0 0 0 0 0 0 0 -39 -30 -33 -36 0 0 0 -72 0 0 0 0 0 0 -193 -195 -247 -205 -178 -169 -142 -139 -132 -101 -49 -36 -52 -76 -70 -50 -20 -5 0 -6 -34 -66 -135 -15
0 0 0 0 0 0 0 0 0 0 -17 -12 -18 -40 -27 0 -15 -75 -68 -108 0 0 0 0 0 0 -164 -105 -131 -155 -193 -165 -134 -95 -66 -43 -41 -47 -48 -71 -88 -54 -42 -67 -103 -180 -177 0 0
0 0 0 -2 0 0 0 0 0 0 -9 0 -5 0 0 -8 0 -40 -52 -34 -32 0 0 0 0 0 -178 -119 -100 -115 -131 -127 -112 -88 -83 -85 -78 -105 -75 -104 -110 -115 -106 -191 -276 -146 0 0 0
0 0 0 -1 -4 -1 -2 0 0 0 0 0 -29 -37 -21 0 0 -7 -28 -11 -54 0 0 0 0 0 0 0 -110 -84 -102 -144 -156 -167 -185 -169 -148 -125 -111 -142 -175 -166 -249 -365 0 0 0 0 0
0 0 0 -1 -2 -5 -2 0 0 0 0 -7 0 0 0 0 0 0 0 0 0 -18 0 0 0 0 0 0 -3 -113 -147 -167 -164 -216 -154 -165 -123 -94 -148 -267 -383 -433 -515 0 0 0 0 0 0
Wind_Speed
19 18 16 16 17 15 15 17 19 22 17 17 19 16 15 15 17 17 16 12 15 12 14 15 14 14 13 13 13 12 13 14 13 13 14 14 13 13 13 14 14 14 13 12 11 11 11 10 10
18 16 16 17 17 18 16 20 21 22 22 22 17 14 15 14 16 16 16 15 15 12 11 13 12 12 12 12 11 12 12 13 12 12 12 12 12 11 11 12 12 12 13 12 10 9 9 10 10
16 16 18 17 17 18 17 19 22 22 19 17 14 14 15 19 20 18 20 15 15 13 12 11 11 10 10 10 10 11 11 11 11 10 10 10 10 10 9 10 11 11 11 10 8 7 8 9 9
16 17 16 17 13 14 16 19 22 22 18 19 16 14 13 19 20 21 17 15 15 13 11 9 8 9 8 8 9 9 9 10 10 9 9 8 7 7 7 7 8 9 8 7 6 6 6 7 8
16 17 17 16 15 15 17 19 21 20 18 20 17 14 14 21 20 18 16 17 16 13 10 8 7 7 7 7 7 7 8 8 8 8 8 7 6 6 5 5 5 5 5 5 5 6 6 7 9
17 17 17 17 13 16 18 21 20 20 19 20 17 15 16 22 21 20 18 18 17 14 12 9 8 8 8 7 6 6 6 6 6 6 6 6 5 5 4 4 5 5 5 6 6 7 9 11 12
16 16 16 14 16 17 20 21 21 21 20 21 20 16 18 23 23 21 19 19 18 16 14 13 11 10 9 10 9 9 7 5 5 5 5 5 4 4 5 6 7 8 9 9 10 12 14 15 15
14 15 15 16 15 17 21 22 21 22 20 23 21 20 21 25 25 23 20 19 20 19 18 16 15 13 14 13 12 12 10 9 7 6 6 6 5 5 6 8 10 11 10 11 14 15 16 17 17
15 16 17 17 17 19 22 23 22 21 23 21 22 22 25 24 26 25 25 23 22 21 20 19 18 17 17 17 17 16 15 14 12 11 10 10 10 8 8 9 12 12 14 15 16 18 18 18 18
15 14 18 17 18 22 23 22 23 22 24 24 26 26 26 27 27 28 28 29 28 26 22 20 20 20 19 20 20 18 16 16 15 14 14 14 14 14 14 13 12 15 16 16 18 18 19 19 18
15 14 15 18 21 21 22 20 20 23 25 26 30 31 32 31 31 31 30 28 29 30 28 24 21 21 21 22 22 21 20 19 18 17 17 17 17 17 17 17 16 16 18 20 17 17 17 18 19
13 15 17 19 20 19 19 21 22 22 25 26 31 32 32 34 34 34 33 31 30 30 29 27 26 25 24 23 23 23 23 22 21 20 19 20 20 20 21 21 20 19 19 20 19 20 19 20 20
17 18 19 20 20 19 20 25 22 24 26 28 31 32 31 32 33 33 32 32 32 30 29 30 28 27 26 25 25 26 25 24 24 23 22 21 23 23 23 23 23 23 21 21 21 21 21 21 21
19 20 19 20 22 20 26 26 22 29 29 34 34 34 32 34 36 36 36 36 34 32 29 29 26 24 24 25 25 27 26 26 26 26 24 22 23 24 24 26 26 25 24 24 24 24 24 23 23
18 19 17 21 24 25 30 26 26 31 33 36 36 33 34 34 34 36 38 37 34 33 32 31 30 26 22 21 23 25 27 27 28 28 26 25 23 24 25 28 28 28 27 26 25 25 25 24 24
20 19 24 26 26 21 30 31 33 35 38 39 35 33 32 32 33 34 35 35 35 35 35 33 28 25 23 22 22 22 25 26 28 28 28 27 27 27 28 29 30 29 29 28 27 25 24 24 23
22 25 29 28 26 27 27 36 29 38 39 37 34 32 33 35 35 35 36 36 35 36 37 37 32 27 23 25 25 24 23 24 28 29 29 30 29 29 29 30 32 30 29 29 29 28 26 25 24
28 29 28 31 29 32 31 32 35 41 36 33 31 33 35 36 36 36 37 36 36 35 34 33 31 25 22 24 23 23 24 25 26 29 31 32 32 31 30 31 30 30 30 29 30 29 27 27 25
23 27 31 28 31 31 35 37 39 37 31 29 31 34 35 35 34 36 37 38 39 38 38 35 30 20 17 19 23 23 25 24 25 26 29 31 33 32 32 33 32 31 31 30 29 29 29 29 26
25 30 33 29 26 32 38 43 36 26 24 24 29 31 33 35 37 38 39 39 40 40 39 37 30 20 14 14 18 23 22 22 23 25 24 27 31 33 34 36 36 34 33 32 30 27 28 28 25
28 30 32 35 34 32 36 38 27 24 19 23 26 28 30 32 34 36 37 38 39 40 40 37 35 24 11 8 11 18 21 22 22 21 23 23 24 28 32 36 38 38 36 35 31 29 27 29 26
32 24 30 34 41 45 33 42 31 23 20 24 28 30 30 31 31 34 35 37 38 39 38 35 34 26 13 5 6 10 15 21 23 18 15 18 20 26 30 33 34 35 35 36 34 29 31 29 27
29 29 33 40 38 35 30 31 28 21 23 32 29 27 27 30 31 32 33 35 36 37 37 34 31 25 16 4 5 8 11 12 18 15 16 18 23 26 27 29 31 32 33 35 35 31 28 30 28
28 33 41 30 29 33 28 29 29 25 27 34 28 25 29 32 33 32 32 33 35 36 35 33 31 26 21 11 2 2 3 14 15 14 12 17 26 27 27 28 29 30 31 32 32 34 32 30 30
31 39 38 36 35 35 25 36 33 30 27 26 27 24 27 32 36 35 34 34 34 33 34 32 30 28 25 18 12 11 10 12 12 13 17 22 27 30 30 30 31 31 31 30 30 33 36 34 31
32 26 32 39 42 46 37 33 31 23 25 21 22 26 28 35 36 36 33 33 32 31 31 31 29 26 24 20 15 12 15 15 17 19 22 27 30 32 33 32 32 33 32 30 29 28 27 26 25
25 28 25 33 33 35 31 31 28 25 24 24 27 28 34 37 37 36 32 31 32 31 31 29 28 26 23 20 16 14 16 19 21 22 22 27 31 33 34 35 35 32 28 25 22 23 24 22 21
24 23 29 29 37 39 35 38 35 30 26 33 30 34 37 37 36 34 29 29 31 31 29 28 27 27 26 23 21 21 21 22 23 25 27 29 30 32 34 37 36 31 25 21 19 17 18 19 19
27 27 26 28 27 38 44 38 29 29 33 29 29 34 35 34 32 31 28 30 30 30 29 27 29 28 26 24 23 23 23 25 26 28 29 30 32 33 33 34 32 28 25 20 17 17 16 17 18
22 27 26 30 33 30 36 38 29 27 25 28 39 34 31 28 28 29 27 29 29 26 27 25 32 29 27 26 25 25 26 27 28 30 31 31 31 30 28 29 27 25 20 19 18 14 12 13 13
Wind_Direction
281 287 295 294 292 297 292 301 303 299 306 317 301 307 311 323 323 331 315 349 325 49 95 98 94 85 78 72 64 54 65 71 76 79 87 88 87 87 93 96 99 104 104 98 87 79 70 58 53
285 291 292 291 289 282 291 305 299 302 300 292 317 321 323 324 315 333 1 30 9 27 89 93 91 79 76 66 47 53 61 65 63 72 80 83 85 84 88 92 97 102 108 106 91 72 54 45 38
293 299 285 291 291 285 288 311 305 304 317 316 327 333 327 311 310 318 336 27 37 38 71 77 78 73 67 46 45 47 50 57 55 59 68 74 78 80 77 89 95 101 106 104 83 60 44 31 36
288 290 298 291 297 307 304 311 314 311 319 323 315 327 347 339 324 324 343 6 27 44 59 58 57 51 50 32 35 12 35 55 57 55 56 49 56 66 67 77 87 93 97 88 65 45 27 19 24
287 290 289 290 294 303 310 313 319 322 317 315 314 320 326 330 331 338 346 349 356 14 25 34 26 27 34 35 30 24 26 34 51 47 46 37 24 37 46 52 62 56 60 52 32 18 21 11 5
288 287 288 283 294 303 308 311 315 324 327 321 318 317 324 324 328 328 332 332 340 348 356 360 357 353 356 358 2 8 14 31 35 48 56 41 30 12 20 12 9 5 359 351 354 350 343 337 338
286 288 290 295 291 300 308 311 316 317 322 321 320 312 314 321 328 328 330 330 332 337 339 337 338 333 336 336 337 336 338 350 4 9 22 39 28 12 343 332 329 328 326 327 327 326 320 319 322
296 297 293 300 303 305 309 313 317 315 319 319 327 314 310 314 323 326 326 327 325 325 324 324 321 325 321 324 321 321 319 318 324 331 336 343 354 340 327 320 314 312 315 315 314 314 315 313 315
305 294 287 295 304 306 311 312 318 317 316 321 321 318 316 316 318 317 314 316 316 317 315 315 313 311 312 314 315 312 308 307 305 307 310 315 318 319 316 310 306 304 303 303 304 304 307 310 313
311 313 294 302 309 308 312 316 316 314 316 316 319 321 320 318 319 316 314 309 310 311 311 312 308 306 306 306 307 309 308 304 302 301 301 300 303 304 306 305 300 298 298 300 298 301 302 307 310
325 321 322 311 315 316 315 324 325 320 314 319 314 313 313 315 316 314 312 313 310 306 305 305 303 303 301 301 302 302 301 302 300 298 295 295 297 298 298 299 298 296 294 294 298 299 301 304 307
345 338 328 322 320 325 326 325 322 322 319 322 318 317 316 312 311 311 311 312 310 307 306 303 301 299 296 296 296 297 296 296 296 297 295 290 289 291 292 293 294 294 294 293 294 296 296 299 302
342 334 331 329 331 329 327 321 321 321 324 324 320 319 318 318 316 314 314 312 313 311 308 304 302 296 293 290 291 291 291 292 291 293 294 290 286 286 288 289 290 290 291 292 291 292 294 296 299
341 332 331 339 336 337 326 323 327 320 326 319 320 317 318 317 314 312 311 310 311 312 311 312 307 301 294 289 287 289 287 287 289 290 291 288 286 284 284 285 286 287 288 289 289 290 291 293 296
10 359 355 341 332 328 321 318 322 322 323 317 317 319 319 320 322 319 316 311 311 310 309 309 309 301 294 294 288 287 286 287 287 286 287 287 285 284 284 282 282 283 286 287 288 289 290 291 294
3 4 343 337 340 347 333 318 319 322 316 312 317 321 324 327 328 329 329 324 312 310 307 307 307 304 292 290 292 290 287 286 287 285 285 284 285 285 283 282 281 281 281 283 284 286 288 290 292
355 340 334 337 346 342 338 321 329 321 319 316 319 321 323 323 326 327 327 326 323 315 311 305 304 300 290 287 291 289 287 288 286 285 283 283 283 284 284 284 280 281 280 279 278 280 283 287 289
338 336 336 331 337 335 332 327 329 321 325 323 324 322 321 322 324 324 325 327 327 326 323 316 310 301 294 286 287 289 288 289 289 285 283 283 282 282 283 284 283 280 278 279 277 275 279 282 287
348 339 332 335 336 333 328 325 324 326 328 327 325 324 324 325 327 329 329 328 325 324 322 322 317 305 291 284 280 282 286 289 288 290 286 282 282 282 281 282 282 281 277 276 276 274 275 278 282
343 334 331 336 340 333 327 321 327 333 335 336 333 332 330 329 329 329 330 330 330 325 324 322 321 311 292 273 274 279 286 294 295 294 292 288 286 284 282 281 280 279 278 276 273 273 273 276 277
339 333 332 329 332 331 328 324 333 340 342 341 340 338 337 335 333 335 334 335 334 331 326 322 318 316 292 267 273 279 286 295 298 303 296 295 293 291 288 285 281 277 274 274 274 271 270 273 275
334 342 335 330 326 321 333 318 328 332 334 337 338 336 335 335 337 337 336 337 337 336 335 331 318 311 310 280 239 271 287 293 303 307 313 303 300 300 300 291 285 279 275 272 273 275 268 266 271
336 337 332 326 323 326 329 324 332 337 329 330 335 337 337 335 334 334 337 338 339 339 339 337 332 321 319 314 259 268 289 298 309 314 315 309 303 305 306 302 292 284 278 275 273 273 272 265 268
339 334 328 333 333 326 333 329 328 328 326 328 334 334 333 332 331 331 332 335 336 339 336 336 338 332 325 331 323 267 244 298 297 308 319 315 301 302 307 308 304 293 284 278 275 273 271 269 270
338 332 330 328 327 324 337 324 321 323 326 329 331 334 332 331 330 328 330 331 332 336 334 332 332 332 328 319 310 304 300 298 306 311 312 308 304 301 304 307 306 303 294 285 279 276 273 270 270
336 340 333 325 323 318 322 321 331 339 337 338 335 331 331 329 329 327 327 327 329 331 332 323 320 319 328 326 323 309 308 311 313 314 312 306 304 303 302 308 309 306 301 293 285 281 277 272 270
343 335 338 326 324 322 325 326 326 330 332 333 330 329 327 326 327 325 325 326 322 319 320 318 306 308 312 328 327 332 326 319 316 321 321 314 308 304 302 301 303 307 309 305 292 285 278 272 268
335 339 330 330 324 321 323 321 322 327 328 329 326 327 327 327 324 323 327 327 324 318 310 308 300 304 299 313 315 313 315 315 317 318 318 318 319 313 306 298 298 305 311 308 300 289 281 271 269
333 328 329 327 319 318 318 321 331 326 326 331 335 330 332 332 331 332 329 327 320 320 310 299 293 299 296 308 309 309 311 315 318 318 321 324 323 318 311 308 306 308 308 308 304 291 281 274 267
339 333 328 321 321 318 316 311 327 328 335 333 325 328 330 334 337 341 342 337 333 317 315 314 287 287 292 301 304 310 314 316 317 317 319 328 327 327 329 320 317 316 322 311 304 296 279 272 265